Content
SEND FEEDBACK

Daily
Averages
Monthly
Summary
United States of America

ROCKFISH, VIRGINIA


Home > North America > United States > Virginia
Elevation: 49 feet     Latitude: 37 48N     Longitude: 078 45W

WEATHER
 
SELECT A DAY
Number of Records: 208,684;   Date Range: 1/1/95 - 9/30/14
 
SHARE

PRINT THIS DATA

[ ← Previous Day ]
WEATHER ALMANAC - JANUARY 31, 2013
[ Next Day → ]
[ °C ]   °F
Weather ElementAverageHighLow
Temperature54.8 °F66.2 °F (12:13 am)28.8 °F (10:55 pm)
Dewpoint44.4 °F62.6 °F (12:18 am)12.9 °F (9:55 pm)
Humidity70.8 %94 % (12:45 am)33 % (12:55 pm)
Barometer29.41 in29.95 in (10:55 pm)29.18 in (1:14 am)
Wind Speed12.2 mph26.5 mph (5:03 am)
Wind Gust34.5 mph (5:03 am)
Weather ElementAverage
Visibility8.6 mi
Wind DirectionSW (228.5 °)

Weather ElementTotal
Precipitation0.27 in
Heating Degree Days17.5 (Base 65)
Averaged from 55 records on January 31, 2013
WEATHER CONDITIONS BREAKOUT
WIND DIRECTION BREAKOUT
WEATHER BY HOUR - JANUARY 31, 2013
[ °C ]   °F
Local TimeTemperatureDewpointHumidityBarometerVisibilityWind DirectionWind SpeedGust SpeedPrecipitationEventsConditions
12:13 AM66.2 °F60.8 °F83 %29.23 in10.0 miSouth (180°)10.4 mph31.1 mphOvercast
12:18 AM66.2 °F62.6 °F88 %29.23 in10.0 miSouth (180°)10.4 mph27.6 mphOvercast
12:19 AM66.2 °F62.6 °F88 %29.24 in10.0 miSSW (210°)10.4 mph23.0 mphRainLight Rain
12:32 AM64.4 °F60.8 °F88 %29.23 in7.0 miSouth (170°)8.1 mph20.7 mphRainLight Rain
12:44 AM66.2 °F62.6 °F88 %29.23 in3.0 miSW (220°)9.2 mph18.4 mphRainHeavy Rain
12:45 AM64.4 °F62.6 °F94 %29.23 in2.5 miSSW (210°)10.4 mph18.4 mphRainHeavy Rain
12:47 AM64.4 °F62.6 °F94 %29.23 in2.5 miSSW (200°)9.2 mph18.4 mphRainHeavy Rain
12:52 AM64.4 °F62.6 °F94 %29.21 in3.0 miSouth (170°)9.2 mph18.4 mphRainRain
12:54 AM64.4 °F62.6 °F94 %29.20 in4.0 miSouth (170°)13.8 mph21.9 mphRainRain
12:55 AM64.4 °F62.1 °F92 %29.20 in4.0 miSouth (170°)13.8 mph21.9 mph0.15 inRainRain
12:57 AM64.4 °F62.6 °F94 %29.20 in5.0 miSouth (170°)12.7 mph21.9 mphRainLight Rain
12:59 AM64.4 °F62.6 °F94 %29.20 in6.0 miSouth (170°)9.2 mph21.9 mphRainLight Rain
1:08 AM64.4 °F62.6 °F94 %29.19 in10.0 miSouth (180°)10.4 mph25.3 mphRainLight Rain
1:11 AM64.4 °F62.6 °F94 %29.19 in10.0 miSouth (170°)11.5 mph25.3 mphRainLight Rain
1:13 AM64.4 °F62.6 °F94 %29.19 in10.0 miSouth (190°)15.0 mph25.3 mphRainLight Rain
1:14 AM64.4 °F62.6 °F94 %29.18 in10.0 miSouth (190°)15.0 mph25.3 mphRainLight Rain
1:17 AM64.4 °F62.6 °F94 %29.19 in9.0 miSSW (200°)16.1 mph24.2 mphRainLight Rain
1:18 AM64.4 °F60.8 °F88 %29.19 in9.0 miSSW (210°)16.1 mph24.2 mphRainLight Rain
1:21 AM64.4 °F60.8 °F88 %29.21 in8.0 miSSW (210°)11.5 mph24.2 mphRainLight Rain
1:23 AM62.6 °F60.8 °F94 %29.22 in7.0 miWSW (250°)11.5 mph24.2 mphRainLight Rain
1:25 AM62.6 °F60.8 °F94 %29.22 in7.0 miWest (270°)8.1 mph24.2 mphRainLight Rain
1:38 AM62.6 °F59.0 °F88 %29.24 in8.0 miWest (260°)15.0 mph28.8 mphRainRain
1:45 AM62.6 °F59.0 °F88 %29.24 in6.0 miWest (270°)15.0 mph23.0 mphRainRain
1:47 AM62.6 °F59.0 °F88 %29.25 in7.0 miWest (270°)13.8 mph23.0 mphRainRain
1:55 AM61.5 °F57.9 °F88 %29.27 in10.0 miWest (270°)11.5 mph24.2 mph0.08 inRainRain
2:05 AM60.8 °F57.2 °F88 %29.24 in7.0 miWest (260°)13.8 mph23.0 mphRainRain
2:14 AM60.8 °F55.4 °F82 %29.24 in7.0 miWSW (250°)9.2 mph27.6 mphRainLight Rain
2:25 AM60.8 °F53.6 °F77 %29.24 in10.0 miWSW (240°)9.2 mph25.3 mphMostly Cloudy
2:55 AM60.1 °F48.4 °F65 %29.23 in10.0 miSW (230°)10.4 mph27.6 mph0.04 inOvercast
3:03 AM59.0 °F50.0 °F72 %29.23 in10.0 miSSW (210°)10.4 mph21.9 mphRainLight Rain
3:13 AM59.0 °F51.8 °F77 %29.21 in10.0 miVariable5.8 mphMostly Cloudy
3:55 AM59.0 °F49.6 °F71 %29.24 in10.0 miSW (230°)8.1 mph20.7 mph0.00 inOvercast
4:45 AM53.6 °F42.8 °F67 %29.31 in10.0 miWNW (300°)19.6 mph27.6 mphOvercast
4:55 AM52.2 °F39.7 °F63 %29.32 in10.0 miWNW (300°)20.7 mph31.1 mphOvercast
5:03 AM51.8 °F37.4 °F58 %29.33 in10.0 miWNW (290°)26.5 mph34.5 mphRainLight Rain
5:12 AM51.8 °F37.4 °F58 %29.35 in10.0 miWNW (290°)18.4 mph34.5 mphOvercast
5:55 AM49.1 °F35.6 °F60 %29.40 in10.0 miWNW (290°)12.7 mph24.2 mph0.00 inMostly Cloudy
6:55 AM48.2 °F28.4 °F46 %29.47 in10.0 miWest (280°)19.6 mph33.4 mphClear
7:55 AM46.4 °F27.3 °F47 %29.55 in10.0 miWest (280°)15.0 mph27.6 mphMostly Cloudy
8:55 AM43.7 °F27.3 °F53 %29.60 in10.0 miWNW (290°)12.7 mph23.0 mphScattered Clouds
9:55 AM44.6 °F22.3 °F41 %29.63 in10.0 miWest (280°)17.3 mph29.9 mphPartly Cloudy
10:55 AM46.2 °F20.1 °F35 %29.67 in10.0 miWest (270°)13.8 mph24.2 mphClear
11:55 AM47.1 °F21.6 °F36 %29.67 in10.0 miWest (260°)12.7 mph27.6 mphClear
12:55 PM46.6 °F18.7 °F33 %29.70 in10.0 miWest (280°)18.4 mph28.8 mphScattered Clouds
1:55 PM46.2 °F18.1 °F33 %29.70 in10.0 miWest (260°)11.5 mph25.3 mphMostly Cloudy
2:55 PM44.2 °F18.3 °F35 %29.74 in10.0 miWNW (300°)19.6 mph24.2 mphMostly Cloudy
3:55 PM43.5 °F15.6 °F33 %29.79 in10.0 miWest (270°)10.4 mph28.8 mphMostly Cloudy
4:55 PM39.7 °F15.6 °F38 %29.83 in10.0 miWNW (290°)11.5 mph23.0 mphScattered Clouds
5:55 PM38.7 °F15.4 °F39 %29.86 in10.0 miWest (270°)6.9 mphScattered Clouds
6:55 PM38.3 °F15.3 °F39 %29.89 in10.0 miWest (280°)13.8 mph18.4 mphScattered Clouds
7:55 PM35.1 °F17.6 °F49 %29.93 in10.0 miWNW (300°)9.2 mphClear
8:55 PM33.8 °F13.1 °F43 %29.93 in10.0 miNW (320°)8.1 mphScattered Clouds
9:55 PM32.0 °F12.9 °F45 %29.94 in10.0 miWNW (290°)5.8 mphPartly Cloudy
10:55 PM28.8 °F17.6 °F63 %29.95 in10.0 miCalmMostly Cloudy
11:55 PM29.3 °F20.3 °F69 %29.95 in10.0 miCalmOvercast
Hourly data recorded from KDAA, located miles away from Rockfish, Virginia







STORIES FROM OUR PARTNERS